0 HST 1 20580U 90037B 26165.14417512 .00006344 00000-0 19999-3 0 9996 2 20580 28.4715 101.3706 0001912 110.8714 249.2086 15.30716351788104 0 ISS (ZARYA) 1 25544U 98067A 26165.09325831 .00008623 00000-0 16324-3 0 9999 2 25544 51.6335 315.4063 0004936 183.6835 176.4118 15.49219019571274 0 CXO 1 25867U 99040B 26166.73124906 .00000579 00000-0 00000-0 0 9994 2 25867 56.1776 116.6293 7842889 310.3072 0.0447 0.37804362 17312